This is the latest recevied weather packets stored in our database for station/object EMGATE. If no packets are shown the sender has not sent any weather packets the latest 10 day(s).
| Time | Temp. | Humidity | Pressure | Rain* | Wind** | Luminosity | Snow |
|---|---|---|---|---|---|---|---|
| 1777112646 | -1.11° C | 81% | 1020.6 hPa | 0 mm | - | - | - |
| 1777111746 | -1.67° C | 81% | 1020.5 hPa | 0 mm | - | - | - |
| 1777110846 | -1.67° C | 80% | 1020.3 hPa | 0 mm | - | - | - |
| 1777109946 | -1.67° C | 80% | 1020.2 hPa | 0 mm | - | - | - |
| 1777109046 | -1.67° C | 78% | 1020.1 hPa | 0 mm | - | - | - |
| 1777108146 | -1.11° C | 76% | 1020 hPa | 0 mm | - | - | - |
| 1777107246 | -0.56° C | 76% | 1019.9 hPa | 0 mm | - | - | - |
| 1777106346 | -0.56° C | 75% | 1019.8 hPa | 0 mm | - | - | - |
| 1777105446 | 0° C | 74% | 1019.7 hPa | 0 mm | - | - | - |
| 1777104546 | 0.56° C | 73% | 1019.5 hPa | 0 mm | - | - | - |
| 1777103646 | 1.11° C | 73% | 1019.5 hPa | 0 mm | - | - | - |
| 1777102794 | 1.67° C | 72% | 1019.1 hPa | 0 mm | - | - | - |
| 1777102746 | 1.67° C | 72% | 1019.1 hPa | 0 mm | - | - | - |
| 1777101846 | 1.67° C | 72% | 1019.1 hPa | 0 mm | - | - | - |
| 1777100946 | 2.22° C | 72% | 1019.1 hPa | 0 mm | - | - | - |
| 1777100046 | 2.22° C | 72% | 1019.1 hPa | 0 mm | - | - | - |
| 1777099146 | 2.22° C | 71% | 1019 hPa | 0 mm | - | - | - |
| 1777098246 | 2.78° C | 71% | 1018.9 hPa | 0 mm | - | - | - |
| 1777097346 | 3.33° C | 70% | 1018.9 hPa | 0 mm | - | - | - |
| 1777096446 | 3.33° C | 69% | 1018.9 hPa | 0 mm | - | - | - |
| 1777095546 | 3.33° C | 68% | 1018.9 hPa | 0 mm | - | - | - |
| 1777094646 | 3.33° C | 66% | 1018.7 hPa | 0 mm | - | - | - |
| 1777093746 | 2.78° C | 66% | 1018.7 hPa | 0 mm | - | - | - |
| 1777092846 | 2.78° C | 67% | 1018.6 hPa | 0 mm | - | - | - |
| 1777091946 | 2.78° C | 63% | 1018.6 hPa | 0 mm | - | - | - |
* Rain latest hour (hover to see other rain measurements)
** Current wind speed in m/s (hover to see current wind gust speed)